Wetbulb
57.86 57.77 58.42 59.17 58.27 57.86 58.47 58.42 55.00 55.95 55.65 56.43 60.00 64.76 66.17 67.86 71.02 71.30 71.91 72.60 73.51 73.73 73.67 74.38 75.39 76.08 75.55 75.70 75.76 74.79 76.34 75.61 73.40 73.33 72.80 72.43 71.88 69.90 69.98 69.84 69.50 69.28 69.00 69.38
56.16 58.60 55.30 54.06 57.47 58.54 58.92 58.62 59.31 59.09 56.58 60.81 62.44 62.14 66.28 66.77 69.13 70.22 71.03 72.20 73.16 73.68 74.14 74.25 74.22 74.50 74.94 74.80 74.50 73.75 73.28 71.79 71.12 70.31 68.11 67.92 68.02 67.79 68.43 67.45 68.72 68.41 67.45 66.42
53.25 57.71 57.22 52.38 56.80 58.42 58.96 59.91 60.34 58.19 61.32 64.25 60.46 59.49 59.08 66.42 67.00 70.05 70.44 71.17 71.91 72.79 72.70 73.61 73.85 73.68 71.44 70.85 72.75 71.25 67.94 67.75 67.25 66.85 65.72 64.46 65.07 65.07 65.70 64.75 65.09 65.84 65.84 65.77
52.52 55.57 48.77 56.80 60.22 58.95 58.08 59.16 60.85 61.64 62.60 64.49 61.87 63.14 66.05 68.25 67.88 70.58 70.15 69.94 71.72 72.32 71.52 71.21 71.13 69.92 70.69 70.93 69.35 67.29 64.44 65.27 65.30 61.54 62.09 62.55 64.31 63.52 64.41 64.98 64.78 64.26 64.07 64.86
51.72 52.08 55.14 56.29 57.73 57.52 56.69 57.46 60.86 60.48 61.54 62.83 64.80 65.50 66.80 68.77 70.04 71.89 71.98 72.11 73.06 73.03 72.20 71.17 70.58 69.91 68.65 66.91 66.30 64.01 62.67 63.27 62.25 63.53 62.71 63.46 62.68 63.16 64.81 65.05 64.24 63.77 63.68 63.29
53.62 50.21 48.69 57.23 59.35 61.54 60.42 53.98 61.31 61.78 62.02 62.43 63.78 62.19 64.61 70.16 72.04 73.14 73.14 73.09 72.28 70.94 70.17 69.28 67.94 67.68 66.00 64.14 63.95 62.55 61.03 61.51 63.18 63.65 63.92 63.36 63.71 64.13 65.63 64.81 63.76 64.15 63.33 63.52
52.08 51.67 54.31 58.44 60.26 62.51 54.90 56.65 62.28 62.54 62.94 63.15 62.71 65.90 71.79 72.46 72.95 73.56 73.04 72.41 71.41 69.86 68.14 66.13 66.48 65.52 63.43 64.04 62.98 63.71 63.56 64.54 64.61 64.60 64.55 64.47 64.64 64.79 65.05 64.26 64.29 64.87 64.53 64.76
51.77 50.52 49.31 60.29 60.75 58.06 63.80 66.20 66.04 63.43 64.91 65.33 71.30 72.22 72.08 72.30 72.66 72.27 71.28 70.42 70.23 68.42 67.09 67.18 67.50 67.36 65.80 65.21 65.38 65.62 65.61 65.04 64.38 64.48 63.48 64.09 64.43 64.22 64.92 64.81 64.16 63.45 63.70 63.40
54.36 53.44 60.90 61.44 63.33 65.17 64.95 65.23 65.74 66.99 66.44 67.74 71.16 70.86 71.69 72.24 72.08 71.33 70.17 70.18 69.40 67.91 67.74 67.79 68.28 67.68 65.53 65.42 65.73 65.49 65.06 64.05 63.94 63.80 64.08 64.57 64.30 63.83 63.16 63.67 63.12 61.94 61.01 60.78
56.55 58.44 59.47 60.49 61.51 62.40 63.20 63.75 65.64 67.85 68.15 68.02 70.39 70.85 71.75 71.86 71.20 69.41 69.23 68.63 69.22 68.09 66.66 66.21 67.20 67.12 66.30 66.39 66.25 65.53 64.33 63.76 63.65 63.47 63.41 64.14 62.97 62.49 62.01 61.52 61.07 60.66 60.16 59.71
57.81 59.27 59.94 60.06 60.34 60.95 62.39 63.82 64.66 67.40 68.92 69.64 70.85 71.28 71.75 71.00 69.76 68.12 69.44 69.89 69.37 68.14 66.75 66.39 66.80 66.16 66.05 66.28 66.06 64.67 63.90 63.46 63.06 62.12 62.94 62.65 63.33 60.97 60.53 60.65 57.78 59.32 59.48 59.63
54.30 59.85 60.01 60.17 60.92 63.20 63.30 63.63 65.17 67.42 69.63 71.30 72.07 71.96 72.06 70.58 69.51 68.48 69.06 69.30 68.62 67.95 67.06 66.43 65.95 65.28 65.58 66.07 65.69 64.29 62.84 62.21 61.76 61.81 61.75 60.97 59.49 59.41 53.72 54.45 52.57 49.43 47.77 51.67
58.86 61.68 62.82 63.00 63.21 64.49 65.25 65.32 66.42 69.35 71.41 71.54 72.85 72.70 72.16 70.09 69.03 66.68 69.36 68.81 68.03 66.72 66.51 66.24 65.57 64.88 65.45 65.62 65.41 64.22 62.82 62.71 61.15 60.36 61.14 61.05 61.10 60.33 58.63 54.73 50.86 49.23 47.87 47.80
62.16 61.37 59.62 61.66 62.39 65.85 66.83 67.73 68.63 71.48 72.60 72.70 72.61 72.72 71.03 69.46 68.43 69.04 69.08 69.69 68.29 67.01 66.32 65.98 65.38 64.51 65.25 65.39 64.99 64.05 63.54 56.94 61.43 61.62 61.60 61.21 61.24 61.24 60.94 60.54 59.69 59.88 49.97 49.82
62.20 62.13 60.60 64.58 67.46 69.35 70.62 70.20 69.87 70.02 70.77 71.16 72.28 71.78 71.15 69.40 69.42 69.27 69.42 68.51 67.74 66.33 65.88 66.08 65.49 64.57 65.12 64.96 64.47 63.76 62.73 61.11 62.00 62.00 61.80 61.27 61.53 61.53 60.66 61.01 60.46 60.54 61.16 51.46
62.83 62.00 63.54 65.97 67.24 68.64 68.26 68.24 68.59 69.35 70.63 71.10 71.10 71.13 70.94 70.71 70.08 69.54 68.85 67.95 65.58 64.05 65.56 65.71 65.76 65.74 65.14 64.82 64.54 63.68 63.11 61.34 60.63 62.19 61.63 61.00 61.35 61.17 60.59 60.28 60.35 60.25 60.11 60.56
62.43 62.91 65.19 65.60 66.30 66.15 66.41 67.79 68.42 69.06 69.80 70.40 70.70 71.29 70.54 70.10 69.67 68.57 67.83 67.98 67.24 66.51 66.84 66.41 66.05 66.44 65.71 64.91 64.63 63.82 63.24 62.24 60.16 62.09 62.29 61.98 61.68 60.78 60.54 60.79 60.27 60.35 60.23 59.81
64.29 64.92 62.80 66.67 66.99 66.92 67.19 67.94 68.49 69.36 69.53 70.23 71.12 70.71 69.92 69.33 68.38 68.22 67.88 68.22 67.62 66.89 67.01 67.23 67.41 66.95 66.21 65.91 65.25 64.68 63.94 63.24 61.70 61.09 62.40 62.46 62.26 61.60 62.20 60.57 60.05 59.91 61.14 59.97
62.51 62.57 59.93 63.01 64.16 65.28 66.97 68.60 69.45 69.73 70.26 70.42 70.27 69.59 69.97 69.94 69.57 68.91 68.85 67.99 67.18 66.32 66.80 67.83 64.05 65.81 66.92 66.09 65.37 65.49 64.37 63.52 62.20 61.22 61.61 60.14 61.47 61.63 61.14 59.40 60.10 60.49 60.22 60.48
61.86 63.00 63.59 64.46 66.09 64.25 64.67 66.08 68.01 69.61 70.17 70.36 69.92 69.91 69.53 69.84 69.99 69.23 69.07 67.85 68.36 67.94 69.15 68.15 67.74 67.52 68.08 67.66 63.26 65.92 64.03 63.22 62.68 62.49 62.01 60.46 61.45 61.52 62.34 56.11 60.31 61.14 60.58 60.68
63.80 63.39 63.72 64.61 64.37 65.54 66.32 66.82 66.97 67.50 68.88 69.74 69.93 69.65 69.59 70.06 69.65 69.11 68.35 66.82 68.85 68.44 68.81 65.77 68.11 67.67 67.51 66.92 66.09 66.16 65.16 63.99 62.64 60.79 61.37 62.59 60.09 62.30 61.89 58.56 59.66 60.07 59.69 60.51
64.92 64.65 64.56 64.95 65.40 65.75 66.95 66.87 67.99 68.22 68.27 68.55 68.90 68.70 68.17 67.76 68.06 67.96 68.75 66.99 67.35 59.35 65.84 67.31 68.11 64.99 66.13 62.22 65.98 64.06 63.87 64.07 63.52 63.05 64.08 63.67 63.48 62.94 61.75 61.10 61.18 61.54 60.72 60.64
65.30 65.31 64.96 64.91 64.64 65.26 66.04 66.54 67.04 67.24 67.23 67.25 66.84 66.89 66.45 66.31 66.24 65.12 64.43 67.85 67.71 62.88 65.57 65.93 61.19 59.31 58.89 66.07 65.10 64.38 63.66 62.96 61.89 62.43 63.76 64.31 64.62 63.58 61.99 60.21 60.02 60.71 61.46 62.04
64.71 64.31 63.98 64.29 64.52 63.57 62.79 64.36 65.50 66.24 66.76 66.93 67.12 67.50 66.70 65.35 66.15 67.40 66.58 59.31 56.55 59.84 64.34 63.92 61.97 57.30 56.95 65.70 65.08 63.72 63.35 62.12 62.84 61.98 63.62 56.08 65.07 61.52 60.66 60.07 59.40 62.33 61.72 60.23
62.96 62.49 63.02 62.45 61.83 61.36 62.13 62.95 62.99 63.20 63.57 64.06 64.12 64.49 64.97 65.40 64.18 65.40 65.93 64.71 56.17 59.08 65.04 55.07 56.51 56.04 63.66 64.60 64.23 62.71 62.28 63.51 64.62 63.84 64.59 64.45 63.14 62.60 61.59 62.10 61.41 60.56 60.15 60.60
62.49 60.37 60.99 63.57 61.51 60.97 60.82 61.31 60.21 61.01 61.08 61.06 62.18 63.64 63.89 64.50 64.60 64.75 65.03 61.68 65.06 60.38 63.57 64.05 64.59 63.78 63.97 63.77 63.07 62.82 64.14 65.15 64.12 63.59 63.00 63.24 62.26 61.99 61.72 61.81 62.34 59.48 61.57 62.27
60.64 56.74 60.73 60.04 60.58 60.90 60.90 60.21 60.11 60.47 60.77 61.66 61.22 62.56 63.21 63.44 62.81 61.84 57.20 63.45 63.95 63.91 64.44 65.22 64.55 62.19 64.06 63.61 64.32 63.63 62.84 63.84 57.69 62.67 62.97 62.59 61.63 61.25 62.02 61.22 61.96 62.37 62.91 62.46
MSLP
989.17 990.64 991.98 991.23 991.82 992.44 993.35 994.21 994.81 995.54 997.90 997.66 998.10 995.57 992.29 992.57 993.68 994.30 994.97 995.48 996.41 996.78 997.59 998.91 999.79 1000.58 1001.53 1002.08 1004.09 1005.40 1005.43 1006.03 1007.06 1007.59 1008.78 1009.84 1009.62 1010.27 1010.85 1011.21 1011.04 1010.96 1011.09 1010.91
989.21 989.96 992.65 993.36 991.34 990.63 991.34 992.41 993.16 994.19 996.30 996.75 997.47 995.01 992.53 993.00 993.45 994.41 995.51 996.23 997.23 998.51 999.48 1000.76 1001.41 1001.63 1003.86 1004.56 1005.27 1005.95 1007.85 1008.31 1008.19 1007.53 1009.11 1010.09 1010.10 1010.90 1010.87 1011.11 1011.42 1011.72 1011.41 1011.57
989.12 989.98 989.61 991.50 989.55 989.30 989.36 989.89 990.61 991.48 993.03 994.78 995.33 997.47 996.01 992.58 992.95 994.59 996.08 997.37 998.54 999.45 1000.21 1002.03 1002.85 1002.72 1004.97 1006.13 1006.66 1007.38 1008.01 1008.44 1008.83 1009.14 1010.29 1011.03 1011.33 1011.87 1011.95 1011.78 1011.96 1011.71 1012.04 1011.98
989.17 989.18 988.10 987.78 987.70 987.59 987.69 988.25 988.65 989.31 990.21 991.21 992.83 993.65 992.29 992.14 992.88 994.29 996.52 998.19 999.09 1000.50 1001.60 1002.71 1003.97 1005.38 1003.71 1006.47 1007.54 1008.06 1007.75 1008.45 1009.40 1009.60 1010.17 1009.90 1011.17 1012.53 1012.78 1012.19 1011.47 1012.22 1012.23 1011.93
988.69 988.61 987.81 987.01 986.67 986.31 986.63 987.00 987.63 987.93 988.65 989.23 990.03 990.59 991.23 991.74 992.88 994.35 996.25 997.84 999.00 1000.47 1001.58 1002.84 1003.97 1005.10 1005.75 1006.63 1007.53 1008.37 1007.71 1008.03 1009.21 1010.40 1009.95 1010.59 1011.94 1012.75 1012.61 1011.37 1011.91 1012.38 1012.27 1012.23
989.26 988.04 987.57 986.76 986.54 986.22 986.44 986.31 986.48 986.99 987.59 988.18 989.25 990.09 990.73 991.40 993.28 994.79 996.56 998.09 999.44 1000.87 1002.09 1003.16 1004.44 1004.96 1005.80 1006.84 1007.99 1008.61 1009.73 1009.99 1008.77 1009.79 1010.30 1011.17 1011.81 1012.30 1011.81 1011.63 1012.03 1011.77 1012.02 1012.23
988.87 987.94 987.27 986.46 987.90 988.02 986.46 986.85 986.21 986.49 986.97 987.71 988.39 989.32 991.26 992.47 994.13 995.67 997.11 998.83 1000.25 1001.52 1002.71 1003.99 1004.65 1005.17 1006.01 1007.01 1008.29 1009.09 1009.77 1010.11 1009.14 1009.80 1010.38 1011.37 1012.05 1012.09 1011.71 1011.80 1011.97 1011.81 1011.70 1011.63
988.94 988.08 987.25 986.85 988.16 987.07 987.15 987.58 987.13 987.18 987.04 987.22 988.57 990.27 991.63 993.40 995.12 996.50 998.20 999.85 1000.89 1001.91 1003.35 1004.38 1004.99 1005.49 1006.36 1007.32 1008.30 1008.87 1009.49 1009.57 1009.43 1010.10 1010.46 1011.36 1011.81 1011.68 1011.41 1011.68 1011.70 1011.63 1011.35 1010.89
987.90 987.53 987.35 987.25 987.35 987.73 987.92 988.26 988.60 988.28 988.00 988.41 989.75 991.20 992.68 994.47 996.19 997.82 999.31 1000.50 1001.45 1002.47 1003.48 1004.55 1005.23 1005.89 1006.63 1007.66 1008.22 1009.01 1009.48 1009.73 1010.14 1010.59 1010.91 1011.22 1011.28 1011.39 1011.44 1011.45 1011.15 1011.13 1010.92 1010.74
987.48 987.22 987.54 987.84 988.04 988.36 988.59 988.74 988.96 989.00 989.04 989.36 990.66 992.22 993.88 995.67 997.28 998.99 1000.25 1000.99 1002.03 1003.07 1003.67 1004.45 1005.37 1006.20 1006.97 1007.64 1008.20 1009.01 1009.57 1010.08 1010.42 1010.69 1010.90 1011.06 1010.80 1010.89 1010.92 1011.14 1011.20 1011.27 1011.13 1011.07
987.47 987.41 987.47 988.03 988.25 988.35 988.79 989.24 989.67 989.96 990.02 990.39 991.54 993.09 994.66 996.41 998.23 999.71 1000.48 1001.34 1002.37 1003.04 1003.79 1004.56 1005.31 1006.27 1007.03 1007.74 1008.16 1008.95 1009.53 1009.99 1010.27 1010.61 1010.52 1010.92 1010.85 1011.30 1011.52 1012.10 1012.24 1012.17 1012.14 1011.72
987.48 987.72 988.08 988.13 988.29 988.83 989.37 989.64 989.97 990.44 991.05 991.55 992.54 994.09 995.58 997.02 998.83 1000.03 1000.67 1001.77 1002.60 1003.42 1004.38 1004.92 1005.71 1006.50 1007.19 1007.80 1008.30 1008.78 1009.37 1009.60 1009.57 1009.74 1010.18 1010.46 1011.18 1011.79 1012.31 1012.46 1012.83 1013.05 1013.13 1013.07
988.28 988.54 988.77 989.03 989.35 989.74 990.04 990.09 990.10 990.85 991.68 992.61 993.62 994.86 996.27 997.79 999.17 999.97 1000.92 1001.82 1002.61 1003.51 1004.32 1005.21 1005.94 1006.72 1007.45 1007.95 1008.31 1008.66 1008.59 1008.73 1009.15 1009.26 1009.54 1010.03 1010.18 1010.69 1011.43 1012.47 1012.65 1012.77 1012.84 1012.88
989.51 989.88 989.70 989.77 989.94 990.08 990.26 990.29 991.02 991.55 992.64 993.34 994.41 995.63 996.99 998.58 999.69 1000.37 1001.31 1001.94 1002.81 1003.60 1004.53 1005.28 1006.00 1006.77 1007.41 1007.87 1008.25 1008.44 1008.39 1008.81 1008.95 1008.91 1009.39 1009.76 1009.95 1010.18 1010.17 1010.51 1010.96 1011.56 1012.05 1012.18
990.19 990.03 989.76 989.56 990.35 990.55 990.59 991.35 991.78 992.64 993.50 994.20 995.27 996.31 997.46 998.76 999.67 1000.45 1001.27 1002.00 1002.97 1003.75 1004.46 1005.21 1005.88 1006.70 1007.35 1007.71 1008.05 1008.23 1008.29 1008.63 1008.55 1008.83 1009.15 1009.40 1009.77 1009.97 1009.98 1010.18 1010.27 1010.27 1010.03 1011.27
990.39 989.96 990.04 990.22 991.01 991.29 991.57 992.11 992.62 993.40 994.30 994.83 995.66 996.76 997.89 998.90 999.77 1000.63 1001.42 1002.15 1002.81 1003.49 1004.37 1005.03 1005.58 1006.33 1007.09 1007.43 1007.79 1007.96 1008.14 1008.32 1008.49 1008.63 1009.01 1009.43 1009.39 1009.37 1009.26 1009.59 1009.71 1009.44 1009.39 1009.47
990.60 990.81 990.94 990.82 991.38 991.49 991.76 992.39 993.24 994.05 994.81 995.37 996.14 997.13 998.15 999.02 999.96 1000.75 1001.46 1002.19 1002.82 1003.63 1004.20 1004.71 1005.17 1005.91 1006.59 1007.09 1007.45 1007.33 1007.59 1008.21 1008.61 1008.53 1008.44 1008.62 1008.72 1009.05 1008.98 1008.88 1008.83 1008.94 1008.90 1009.31
992.06 992.61 993.25 992.05 991.96 992.40 992.39 993.54 994.28 994.84 995.39 996.01 996.77 997.55 998.34 999.08 999.78 1000.61 1001.23 1001.97 1002.67 1003.42 1003.86 1004.33 1004.77 1005.56 1006.17 1006.61 1007.04 1006.72 1006.97 1007.30 1008.24 1008.45 1008.28 1008.25 1008.64 1008.90 1009.06 1008.97 1008.80 1008.49 1008.93 1009.27
992.81 992.93 993.82 992.91 993.81 994.26 994.77 995.07 995.03 995.60 995.96 996.73 997.25 997.72 998.48 999.22 999.95 1000.69 1001.28 1001.89 1002.36 1002.87 1003.41 1004.03 1004.77 1005.26 1005.70 1006.12 1006.51 1006.40 1006.33 1006.71 1007.21 1007.85 1008.04 1008.19 1008.67 1008.59 1008.87 1009.10 1008.85 1008.38 1008.19 1008.43
993.21 993.73 994.53 995.65 995.18 994.82 995.63 995.89 996.29 996.31 996.82 997.33 997.76 998.07 998.65 999.26 1000.07 1000.76 1001.37 1001.79 1001.94 1002.23 1003.05 1003.68 1004.35 1004.79 1005.09 1005.63 1006.37 1005.77 1006.14 1006.40 1006.85 1007.23 1007.66 1007.98 1008.16 1008.02 1008.56 1009.00 1008.68 1008.27 1007.75 1007.84
993.85 994.17 995.42 995.83 996.44 995.83 996.17 996.97 997.43 997.33 997.54 997.87 997.98 998.39 998.99 999.57 1000.23 1000.84 1001.37 1001.41 1001.94 1002.49 1002.80 1003.19 1003.75 1004.16 1004.69 1004.68 1005.71 1005.75 1005.54 1005.80 1006.12 1006.69 1006.90 1007.62 1007.75 1008.19 1008.27 1008.78 1008.62 1008.17 1007.25 1007.18
994.81 995.42 995.57 996.35 996.51 996.70 997.39 997.75 997.70 998.01 998.28 998.65 998.81 999.28 999.76 1000.14 1000.64 1001.03 1001.17 1001.18 1001.75 1002.63 1002.97 1003.07 1003.21 1003.66 1003.73 1004.44 1004.76 1005.02 1005.27 1005.48 1005.12 1005.23 1006.06 1006.85 1007.49 1007.80 1007.62 1007.81 1007.76 1007.17 1006.82 1006.83
995.16 995.63 996.16 996.65 997.55 997.86 998.04 998.19 998.52 998.97 999.13 999.31 999.59 999.99 1000.21 1000.35 1000.54 1000.61 1001.15 1001.63 1001.82 1002.75 1002.79 1002.60 1003.15 1003.70 1004.29 1004.32 1004.05 1004.33 1004.58 1004.53 1004.57 1005.10 1005.77 1006.66 1007.29 1007.53 1007.34 1007.83 1007.59 1007.39 1006.53 1006.74
996.20 996.61 996.84 997.50 998.09 998.22 998.53 999.08 999.39 999.63 999.82 1000.02 1000.29 1000.51 1000.44 1000.30 1000.63 1000.84 1001.47 1002.07 1002.43 1002.63 1002.89 1003.12 1003.67 1004.15 1004.38 1003.85 1003.77 1003.96 1003.98 1004.31 1004.28 1004.88 1004.62 1006.22 1007.02 1007.47 1007.51 1007.30 1007.30 1006.23 1006.41 1006.23
997.29 997.49 997.78 998.10 998.46 998.91 999.43 999.70 999.86 1000.09 1000.32 1000.61 1001.02 1001.08 1001.02 1000.82 1000.64 1000.55 1001.41 1002.13 1002.81 1003.02 1002.69 1003.87 1004.17 1004.46 1004.14 1003.74 1003.43 1003.37 1003.57 1003.84 1004.11 1005.03 1005.05 1006.15 1006.73 1007.37 1007.13 1006.41 1006.61 1006.41 1006.58 1006.07
997.46 997.61 998.00 998.10 998.48 998.77 999.05 999.17 999.32 999.70 999.90 1000.09 1000.45 1000.57 1000.69 1001.03 1001.26 1001.52 1001.91 1002.03 1002.24 1002.83 1002.58 1003.14 1002.99 1003.66 1003.43 1003.20 1002.96 1003.14 1003.51 1003.91 1004.81 1005.10 1005.35 1005.52 1005.35 1005.62 1006.04 1006.19 1005.86 1005.79 1005.83 1005.23
998.09 998.14 998.35 998.53 998.71 998.77 999.00 999.29 999.58 999.79 999.85 1000.01 1000.47 1000.79 1000.92 1001.04 1001.26 1001.25 1001.57 1001.71 1001.74 1001.91 1001.84 1002.04 1002.23 1002.76 1002.53 1002.50 1002.73 1003.12 1003.47 1003.53 1004.23 1004.30 1004.83 1005.14 1005.56 1005.68 1005.26 1004.96 1004.94 1004.99 1004.82 1004.72
Wind_Speed
22 15 17 21 23 27 20 20 19 15 11 10 22 30 10 10 11 10 10 10 9 11 11 11 12 13 12 16 13 11 14 15 14 13 10 8 8 7 6 6 5 5 3 4
22 16 25 22 23 25 27 25 24 20 10 19 10 25 1 6 12 10 10 12 13 14 12 13 12 16 12 11 16 14 12 12 11 14 12 9 9 6 6 4 5 5 7 7
18 28 22 33 32 24 21 23 25 20 20 14 9 9 40 6 6 12 11 12 15 16 17 12 13 17 15 13 13 14 13 13 13 13 11 7 8 8 6 6 3 5 5 5
16 17 22 16 23 20 22 20 22 24 19 21 27 36 15 4 6 14 17 15 16 16 16 17 16 11 20 17 13 12 13 13 11 11 9 9 8 2 1 1 6 4 5 7
14 17 18 24 15 19 21 22 22 21 19 17 10 11 7 5 3 13 17 16 17 18 18 18 18 15 16 14 12 9 13 15 11 8 11 10 6 2 3 7 4 4 4 4
12 15 16 16 7 10 11 13 15 19 19 16 15 10 10 15 13 18 19 18 18 19 20 19 17 16 15 13 10 8 4 1 12 9 11 9 6 3 4 6 4 3 2 3
14 11 16 3 9 15 11 2 10 16 15 15 15 7 14 16 17 19 19 21 20 20 18 17 15 15 14 12 10 10 9 8 13 11 11 8 5 4 5 3 2 1 1 3
14 17 16 9 18 16 8 9 11 13 6 4 17 17 16 16 19 21 21 21 21 18 16 14 14 13 14 13 13 12 10 10 12 10 8 7 6 4 4 4 3 3 2 2
14 16 15 4 9 8 6 5 4 5 3 7 14 14 16 17 18 19 20 18 18 17 17 14 12 12 14 13 13 11 11 11 11 9 8 7 6 5 6 4 1 4 3 4
20 9 4 7 6 2 2 5 4 4 3 4 12 15 17 17 18 17 16 16 17 17 17 16 14 13 14 13 13 12 11 11 10 9 7 6 6 4 3 3 4 3 4 5
12 4 4 4 3 3 3 2 2 2 2 5 13 16 19 18 18 15 15 16 16 15 16 16 15 14 13 13 13 12 11 10 9 8 6 5 5 5 5 6 7 5 5 5
11 9 11 10 3 2 5 8 5 4 6 8 14 18 19 20 17 16 15 17 15 15 15 15 15 14 13 12 12 12 10 9 8 7 8 8 7 6 8 7 3 4 4 4
2 5 9 9 8 8 9 9 7 8 11 14 15 17 19 18 16 14 17 16 16 16 16 15 14 13 12 12 12 11 9 8 7 6 5 4 5 8 9 7 9 8 9 9
10 4 5 5 8 7 12 7 7 11 13 14 16 17 17 16 16 17 16 16 16 16 15 15 14 13 13 12 11 10 7 4 7 5 5 5 4 4 4 3 6 9 11 13
8 7 9 3 2 6 8 10 13 15 15 18 17 18 20 21 19 17 17 17 16 16 15 14 14 13 13 13 12 10 9 8 7 6 5 2 4 3 4 3 4 3 4 6
4 3 8 8 10 11 14 15 16 16 16 18 19 18 19 18 18 17 17 17 16 14 15 14 14 14 14 13 12 10 9 5 6 6 7 6 6 6 5 4 5 6 4 3
9 7 9 11 10 11 13 15 14 14 14 15 17 17 18 18 17 17 17 16 14 14 15 14 14 14 14 13 12 9 8 9 8 7 8 8 5 5 4 4 4 2 4 4
8 9 10 13 13 10 12 13 13 13 13 15 15 16 17 17 16 16 16 16 15 14 14 14 14 14 14 13 13 9 9 9 10 9 8 4 3 4 3 5 6 5 2 4
5 9 13 8 15 14 11 7 12 9 11 13 15 16 15 15 15 15 15 15 14 14 13 14 12 14 14 13 12 9 8 7 7 9 8 5 6 8 6 2 7 8 5 3
10 7 16 8 3 14 10 7 5 9 8 11 13 13 14 13 14 14 14 13 12 10 14 13 15 14 13 14 13 10 7 5 5 6 5 5 7 7 5 4 9 9 8 6
15 11 13 14 9 11 14 8 8 9 10 11 12 12 12 11 11 12 13 10 11 7 10 14 13 11 11 9 12 11 11 6 5 7 6 8 5 11 6 7 9 9 7 8
16 17 16 14 12 13 12 10 11 9 10 10 10 11 11 11 11 11 9 3 9 9 7 8 10 13 7 13 9 7 7 9 11 5 4 7 8 10 9 7 9 11 6 5
13 14 14 15 13 13 13 11 11 10 10 10 10 10 10 9 9 9 8 7 7 8 7 8 6 12 14 9 8 7 7 12 3 5 6 8 9 10 7 2 3 12 5 2
14 13 14 13 12 12 12 10 9 9 8 8 7 5 5 5 3 2 7 8 8 9 8 5 7 10 7 9 10 8 8 6 5 3 5 7 7 3 3 10 12 10 4 8
12 13 12 13 12 9 10 10 9 8 8 7 6 5 3 2 5 5 3 7 7 5 8 13 11 8 7 10 11 10 5 5 3 7 1 5 9 13 16 9 5 6 9 8
11 9 8 8 9 8 8 7 6 5 5 5 5 3 3 4 4 3 4 2 8 5 8 9 9 8 9 10 10 4 3 2 5 7 7 8 8 6 7 8 10 3 9 7
10 9 9 8 7 6 6 6 7 6 5 6 6 5 4 4 4 3 1 8 8 8 5 2 6 8 8 1 3 3 3 2 1 9 8 8 4 5 8 9 8 8 9 8
Wind_Direction
229 180 261 219 200 222 205 228 244 218 201 256 279 312 223 162 151 143 136 126 123 116 115 108 92 84 64 98 80 93 107 119 118 109 86 89 85 68 38 20 18 18 341 0
243 213 163 277 270 202 208 212 224 246 212 208 290 345 255 202 160 156 147 134 129 126 135 121 122 116 95 109 105 103 113 109 104 90 105 115 82 56 61 57 21 1 22 14
228 247 207 195 216 217 212 216 221 210 228 179 91 50 287 166 174 158 145 141 138 140 139 141 138 125 107 107 122 119 131 117 98 98 102 80 57 29 9 48 49 25 25 10
236 249 252 246 244 240 245 228 236 233 216 209 172 208 253 174 171 140 146 147 143 139 130 131 125 134 122 145 141 133 116 109 113 120 126 98 75 91 251 67 56 34 23 27
229 221 242 236 249 237 232 229 232 244 246 247 215 234 222 152 192 148 142 146 148 144 137 135 141 139 128 128 122 135 125 132 126 146 96 93 111 169 214 70 50 63 49 26
233 238 262 238 207 246 237 261 238 233 237 231 217 195 224 175 154 134 140 142 140 139 143 137 140 133 124 115 107 104 84 322 120 103 116 118 133 128 81 96 64 60 68 47
241 241 236 260 351 231 227 252 236 223 222 219 226 189 106 123 127 133 138 139 139 143 136 139 137 124 116 123 134 144 150 135 106 103 101 115 138 136 116 92 127 50 332 164
229 242 247 100 180 232 60 51 10 12 327 142 101 113 119 132 136 137 137 142 149 138 136 136 135 133 136 129 133 132 135 115 105 120 127 134 136 123 130 167 159 145 56 7
225 219 237 316 82 65 53 94 324 10 23 99 110 121 135 133 141 138 141 154 142 141 136 135 140 139 129 130 128 129 125 121 124 128 136 141 141 154 163 162 124 68 49 38
223 198 148 178 121 111 28 359 18 339 338 207 138 147 143 144 141 143 153 144 145 143 140 142 139 139 132 136 136 138 132 132 134 137 141 167 168 163 115 115 94 67 46 37
251 245 185 144 234 231 186 263 284 316 226 161 147 150 149 146 138 145 154 149 151 147 141 139 137 134 138 141 144 142 142 143 147 145 159 150 70 61 95 41 21 27 25 37
234 224 231 252 270 17 319 285 246 180 167 154 152 149 152 148 143 154 151 147 147 142 140 138 138 140 143 149 152 148 154 168 173 146 178 138 134 127 61 92 193 242 253 301
354 75 29 354 327 308 285 264 221 182 153 149 144 148 149 134 143 144 147 150 144 143 140 142 141 143 149 156 158 168 179 158 160 177 158 163 179 174 174 202 231 240 236 239
319 331 272 259 268 248 248 209 146 139 147 143 144 144 135 137 135 149 151 148 144 142 148 148 149 152 159 163 171 182 174 130 175 169 171 174 182 185 242 216 203 189 227 230
250 253 265 236 151 201 139 147 145 145 145 140 143 144 145 145 154 151 149 146 146 148 150 154 157 158 168 170 179 182 178 179 209 171 177 172 167 205 240 196 253 262 259 192
238 262 237 139 155 152 148 151 144 141 145 143 143 147 144 150 147 148 149 152 154 158 159 164 166 164 172 176 184 185 192 194 220 181 153 210 210 227 216 196 227 240 260 301
200 164 182 139 138 128 144 134 135 137 139 141 143 143 148 148 149 153 157 156 159 161 168 171 169 166 177 180 191 189 195 173 227 228 217 201 214 225 243 267 259 293 262 114
77 125 335 173 141 94 81 106 118 137 145 143 146 149 156 157 158 159 161 164 162 166 175 173 172 170 184 185 195 212 202 192 184 226 238 219 221 233 259 260 260 267 14 169
239 151 81 358 101 94 82 95 109 106 130 149 157 159 161 164 159 166 164 168 170 172 180 178 163 177 189 194 197 221 217 213 183 195 228 183 202 230 215 319 296 274 234 197
146 95 109 146 110 108 86 71 97 122 144 155 164 158 162 164 159 165 168 182 182 186 167 185 175 198 199 192 192 235 212 197 199 204 188 203 260 211 224 277 294 265 266 220
125 139 151 123 144 113 123 135 160 153 154 161 158 158 163 145 157 167 175 193 180 150 184 170 188 205 208 208 180 226 247 232 199 191 177 239 202 243 197 234 253 269 260 269
149 143 129 126 121 116 122 131 122 124 127 136 138 142 145 153 160 178 185 246 148 146 200 195 198 210 220 168 201 213 218 232 246 227 203 219 229 239 225 226 245 272 219 269
125 121 115 120 124 123 118 113 115 123 125 125 132 144 166 164 179 176 190 207 141 178 218 212 140 137 150 203 226 223 239 263 252 223 212 227 224 219 227 198 282 289 208 234
124 118 113 114 116 107 104 102 106 110 117 122 129 145 173 171 167 244 108 68 81 147 218 86 125 130 185 225 234 263 259 238 232 240 188 188 215 191 226 202 233 250 280 264
124 124 124 122 121 116 124 129 127 131 137 119 150 171 202 245 304 142 162 117 108 235 219 127 134 141 222 240 241 239 211 254 319 299 181 209 178 178 218 228 264 253 257 251
136 122 122 118 124 135 136 150 117 138 145 145 129 156 167 133 121 168 185 321 157 191 252 159 192 195 226 241 247 254 260 265 225 205 207 207 191 189 198 224 247 269 270 261
116 128 125 125 129 128 111 115 135 139 139 128 128 148 157 166 124 250 274 153 204 191 199 229 209 190 251 221 196 222 212 162 36 157 190 181 187 238 224 222 243 251 243 245